| time (UTC) | temp C | wind direction | speed KPH | gust KPH | rain 1hr cm | rain 24hr cm | rain mn cm | humidity % | barometer mb |
| 20260505080132 | 12 | 260 | 12.9 | 25.7 | 0.00 | 0.05 | 0.05 | 39 | 1004.0 |
| 20260505073102 | 15 | 255 | 9.7 | 19.3 | 0.05 | 0.05 | 0.05 | 37 | 1003.7 |
| 20260505070053 | 15 | 262 | 11.3 | 20.9 | 0.05 | 0.08 | 0.05 | 37 | 1003.5 |
| 20260505063042 | 12 | 260 | 9.7 | 17.7 | 0.00 | 0.03 | 0.00 | 47 | 1003.4 |
| 20260505060034 | 8 | 287 | 8.0 | 17.7 | 0.00 | 0.03 | 0.00 | 61 | 1003.2 |
| 20260505053023 | 8 | 254 | 6.4 | 14.5 | 0.00 | 0.05 | 0.00 | 73 | 1003.0 |
| 20260505050115 | 7 | 244 | 4.8 | 12.9 | 0.00 | 0.08 | 0.00 | 76 | 1002.8 |
| 20260505040053 | 7 | 264 | 6.4 | 19.3 | 0.00 | 0.23 | 0.00 | 76 | 1002.2 |
| 20260505033043 | 7 | 233 | 6.4 | 14.5 | 0.00 | 0.41 | 0.00 | 79 | 1002.1 |
| 20260505030033 | 6 | 234 | 6.4 | 12.9 | 0.00 | 0.56 | 0.00 | 81 | 1002.1 |
| 20260505023023 | 7 | 219 | 6.4 | 14.5 | 0.00 | 0.76 | 0.00 | 79 | 1001.9 |
| 20260505020113 | 7 | 208 | 6.4 | 19.3 | 0.00 | 0.86 | 0.00 | 76 | 1001.8 |
| 20260505013103 | 7 | 230 | 4.8 | 16.1 | 0.00 | 0.91 | 0.00 | 74 | 1001.8 |
| 20260505010053 | 7 | 221 | 3.2 | 14.5 | 0.00 | 0.91 | 0.00 | 73 | 1001.8 |
| 20260505003043 | 7 | 211 | 3.2 | 8.0 | 0.00 | 0.91 | 0.00 | 70 | 1001.8 |
| 20260505000036 | 7 | 214 | 3.2 | 9.7 | 0.00 | 0.91 | 0.00 | 66 | 1001.8 |
| 20260504233026 | 7 | 199 | 1.6 | 8.0 | 0.00 | 0.91 | 0.00 | 59 | 1001.8 |
| 20260504230118 | 7 | 180 | 1.6 | 9.7 | 0.00 | 0.91 | 0.00 | 55 | 1001.9 |
| 20260504223107 | 7 | 198 | 3.2 | 11.3 | 0.00 | 0.91 | 0.00 | 53 | 1001.9 |
| 20260504220117 | 7 | 195 | 3.2 | 9.7 | 0.00 | 0.91 | 0.00 | 57 | 1001.9 |
| 20260504213107 | 7 | 202 | 1.6 | 6.4 | 0.00 | 0.91 | 0.91 | 54 | 1001.9 |
| 20260504210037 | 7 | 202 | 1.6 | 4.8 | 0.00 | 0.91 | 0.91 | 56 | 1001.9 |
| 20260504203028 | 8 | 202 | 1.6 | 4.8 | 0.00 | 0.91 | 0.91 | 54 | 1001.7 |
| 20260504200116 | 9 | 202 | 1.6 | 4.8 | 0.00 | 0.91 | 0.91 | 50 | 1001.7 |
| 20260504193106 | 10 | 220 | 1.6 | 6.4 | 0.00 | 0.91 | 0.91 | 45 | 1001.6 |
| 20260504190057 | 12 | 234 | 3.2 | 14.5 | 0.00 | 0.91 | 0.91 | 41 | 1001.4 |
| 20260504183047 | 13 | 246 | 4.8 | 11.3 | 0.00 | 0.91 | 0.91 | 37 | 1001.5 |
| 20260504180038 | 14 | 270 | 8.0 | 14.5 | 0.00 | 0.91 | 0.91 | 35 | 1001.3 |
| 20260504173029 | 15 | 276 | 11.3 | 29.0 | 0.00 | 0.91 | 0.91 | 35 | 1001.2 |
| 20260504160122 | 16 | 271 | 11.3 | 29.0 | 0.00 | 0.91 | 0.91 | 46 | 1000.2 |